Location: Dalton Gardens
(47.7327°N, 116.7697°W)
Time: 01:54:31
(UTC+00:00)

BlueWalker 3 - Pass Details

Date: 02 December 2022
Orbit: 499 x 517 km, 53.2° (Epoch: 26 January)

Event Time Altitude Azimuth Distance (km) Brightness Sun altitude
Rises 03:18:40 0° 295° (WNW) 2,627 6.5 -33.1°
Reaches altitude 10° 03:20:56 10° 301° (WNW) 1,735 5.3 -33.5°
Enters shadow 03:21:20 13° 302° (WNW) 1,577 5.0 -33.5°
